Location: Huberhof
(49.2050°N, 7.4980°E)
Time: 01:09:20
(UTC+00:00)

ATLAS 5 CENTAUR R/B - Pass Details

Date: 29 October 2020
Orbit: 531 x 1127 km, 63.4° (Epoch: 22 November)

Event Time Altitude Azimuth Distance (km) Brightness Sun altitude
Rises 18:09:29 0° 300° (WNW) 2,933 6.1 -19.5°
Reaches altitude 10° 18:12:28 10° 322° (NW) 2,126 4.8 -20.0°
Maximum altitude 18:15:33 17° 2° (N) 1,833 4.0 -20.5°
Enters shadow 18:17:30 14° 27° (NNE) 2,054 4.0 -20.8°
